Alturas, CA

8:12 AM PST on December 13, 2019 (GMT -0800)
Alturas Municipal

Weather History for KAAT - October, 2019

Change the Weather History Date:

Saturday, October 26, 2019

  Actual Average Record
Temperature  
Mean Temperature 42 °F 43 °F  
Max Temperature 57 °F 60 °F 83 °F (1966)
Min Temperature 26 °F 27 °F 13 °F (2011)
Degree Days  
Heating Degree Days 24 22  
Month to date heating degree days 533 453  
Since 1 July heating degree days 839 830  
Cooling Degree Days 0 0  
Month to date cooling degree days 0 0  
Year to date cooling degree days 217 156  
Moisture  
Dew Point 25 °F    
Average Humidity 59    
Maximum Humidity 92    
Minimum Humidity 14    
Precipitation  
Precipitation 0.00 in 0.04 in 0.64 in (1982)
Month to date precipitation 0.31 0.76  
Year to date precipitation 12.54 10.42  
Sea Level Pressure  
Sea Level Pressure 30.08 in    
Wind  
Wind Speed 4 mph ()    
Max Wind Speed 21 mph    
Max Gust Speed 30 mph    
Visibility 10.0 miles    
Events      
T = Trace of Precipitation, MM = Missing Value Source: Averaged Metar Reports

Daily Weather History Graph

Daily Weather History Graph

Search for Another Location

Airport or City:

Astronomy

Oct. 26, 2019 Rise Set
Actual Time 7:26 AM PDT 6:05 PM PDT
Civil Twilight 6:58 AM PDT 6:33 PM PDT
Nautical Twilight 6:25 AM PDT 7:05 PM PDT
Astronomical Twilight 5:53 AM PDT 7:38 PM PDT
Moon 5:26 AM PDT (10/26) 5:45 PM PDT (10/26)
Length of Visible Light 11h 35m
Length of Day
10h 38m
Waning Crescent, 3% of the Moon is Illuminated
Oct 26
Waning Crescent
Oct 27
New
Nov 4
First Quarter
Nov 12
Full
Nov 19
Last Quarter

Hourly Weather History & Observations

Time (PDT) Temp. Windchill Dew Point Humidity Pressure Visibility Wind Dir Wind Speed Gust Speed Precip Events Conditions
12:55 AM 39.9 °F - 34.0 °F 79% 30.12 in 10.0 mi Calm Calm - N/A   Clear
1:55 AM 37.9 °F 34.4 °F 32.0 °F 79% 30.11 in 10.0 mi ESE 4.6 mph - N/A   Clear
2:55 AM 36.0 °F - 30.9 °F 82% 30.11 in 10.0 mi Calm Calm - N/A   Clear
3:55 AM 33.1 °F - 28.9 °F 85% 30.10 in 10.0 mi Calm Calm - N/A   Clear
4:55 AM 32.0 °F 28.7 °F 28.0 °F 85% 30.09 in 10.0 mi South 3.5 mph - N/A   Clear
5:55 AM 27.0 °F 21.6 °F 25.0 °F 92% 30.12 in 10.0 mi SE 4.6 mph - N/A   Clear
6:55 AM 28.0 °F - 26.1 °F 92% 30.13 in 10.0 mi Calm Calm - N/A   Clear
7:55 AM 28.0 °F - 25.0 °F 88% 30.13 in 10.0 mi Calm Calm - N/A   Clear
8:55 AM 34.0 °F - 30.9 °F 89% 30.13 in 10.0 mi Calm Calm - N/A   Mostly Cloudy
9:55 AM 41.0 °F 39.0 °F 36.0 °F 82% 30.12 in 10.0 mi ESE 3.5 mph - N/A   Mostly Cloudy
10:11 AM 42.1 °F - 37.0 °F 82% 30.14 in 10.0 mi Calm Calm - N/A   Mostly Cloudy
10:42 AM 46.0 °F - 37.9 °F 73% 30.12 in 10.0 mi Calm Calm - N/A   Scattered Clouds
10:55 AM 48.0 °F - 37.9 °F 68% 30.08 in 10.0 mi Variable 3.5 mph - N/A   Clear
11:18 AM 48.9 °F - 37.0 °F 64% 30.11 in 10.0 mi NNE 6.9 mph - N/A   Mostly Cloudy
11:27 AM 48.0 °F - 37.0 °F 66% 30.12 in 10.0 mi Calm Calm - N/A   Overcast
11:55 AM 50.0 °F - 35.1 °F 57% 30.07 in 10.0 mi Calm Calm - N/A   Mostly Cloudy
12:55 PM 54.0 °F - 34.0 °F 47% 30.03 in 10.0 mi NW 4.6 mph - N/A   Clear
1:55 PM 55.9 °F - 16.0 °F 21% 30.00 in 10.0 mi WNW 9.2 mph - N/A   Clear
2:55 PM 53.1 °F - 24.1 °F 32% 29.97 in 10.0 mi North - - N/A   Clear
3:55 PM 55.0 °F - 7.0 °F 15% 29.96 in 10.0 mi NW 12.7 mph 17.3 mph N/A   Clear
4:55 PM 53.1 °F - 8.1 °F 16% 29.96 in 10.0 mi WNW 13.8 mph - N/A   Clear
5:55 PM 46.9 °F - 14.0 °F 27% 29.99 in 10.0 mi North 12.7 mph - N/A   Clear
6:55 PM 43.0 °F 36.0 °F 12.0 °F 28% 30.00 in 10.0 mi NNE 13.8 mph 21.9 mph N/A   Clear
7:55 PM 41.0 °F 35.8 °F 12.9 °F 32% 30.04 in 10.0 mi NE 8.1 mph - N/A   Partly Cloudy
8:55 PM 39.0 °F 31.8 °F 16.0 °F 39% 30.07 in 10.0 mi NE 11.5 mph 19.6 mph N/A   Overcast
9:55 PM 37.0 °F 29.3 °F 17.1 °F 44% 30.10 in 10.0 mi NNE 11.5 mph 21.9 mph N/A   Partly Cloudy
10:55 PM 34.0 °F 25.0 °F 15.1 °F 46% 30.12 in 10.0 mi NNE 12.7 mph 23.0 mph N/A   Clear
11:55 PM 34.0 °F 23.8 °F 16.0 °F 48% 30.13 in 10.0 mi NNE 16.1 mph 25.3 mph N/A   Clear